When you browse on this site, cookies collect data to enhance your experience and personalize the content and advertising you see.
Visit our Privacy Policy to learn more. By continuing to use the site, you agree to this use of cookies and data.
  • In Hungary
  • List of Countries
  • For 7 days
  • Water Temperature
  • Satellite Maps
  • Weather Map
  • News
  • Weather Widgets
  • user-avatar
    Login

    Hourly Weather Deva

    Today, 22 March, Friday

    Time Temperature Precipitation Wind Pressure Humidity
    00:00 +5°C° 0 mm 0 mps 741 mmHg 70%
    01:00 +5°C° 0 mm 0 mps 741 mmHg 71%
    02:00 +5°C° 0 mm 0 mps 741 mmHg 72%
    03:00 +4°C° 0 mm 0 mps 741 mmHg 73%
    04:00 +4°C° 0 mm 0 mps 740 mmHg 73%
    05:00 +4°C° 0 mm 0 mps 740 mmHg 74%
    06:00 +5°C° 0 mm 0 mps 740 mmHg 71%
    07:00 +5°C° 0 mm 0 mps 740 mmHg 69%
    08:00 +7°C° 0 mm 0 mps 741 mmHg 64%
    09:00 +9°C° 0 mm 0 mps 741 mmHg 58%
    10:00 +11°C° 0 mm 0 mps 741 mmHg 51%
    11:00 +13°C° 0 mm 0 mps 741 mmHg 45%
    12:00 +15°C° 0 mm 1 mps 741 mmHg 43%
    13:00 +16°C° 0 mm 1 mps 740 mmHg 41%
    14:00 +18°C° 0 mm 1 mps 740 mmHg 38%
    15:00 +18°C° 0 mm 1 mps 739 mmHg 40%
    16:00 +16°C° 0 mm 1 mps 739 mmHg 42%
    17:00 +16°C° 0 mm 1 mps 739 mmHg 44%
    18:00 +14°C° 0 mm 1 mps 738 mmHg 51%
    19:00 +12°C° 0 mm 1 mps 738 mmHg 59%
    20:00 +11°C° 0 mm 1 mps 738 mmHg 66%
    21:00 +10°C° 0 mm 1 mps 738 mmHg 68%
    22:00 +9°C° 0 mm 1 mps 738 mmHg 69%
    23:00 +9°C° 0 mm 1 mps 738 mmHg 71%

    Tomorrow, 23 March, Saturday

    Time Temperature Precipitation Wind Pressure Humidity
    00:00 +8°C° 0 mm 1 mps 738 mmHg 72%
    01:00 +8°C° 0 mm 1 mps 737 mmHg 74%
    02:00 +8°C° 0 mm 1 mps 737 mmHg 75%
    03:00 +7°C° 0 mm 1 mps 737 mmHg 77%
    04:00 +7°C° 0 mm 1 mps 737 mmHg 79%
    05:00 +7°C° 0 mm 1 mps 736 mmHg 81%
    06:00 +6°C° 0 mm 0 mps 737 mmHg 78%
    07:00 +7°C° 0 mm 0 mps 737 mmHg 75%
    08:00 +8°C° 0 mm 0 mps 737 mmHg 72%
    09:00 +10°C° 0 mm 0 mps 737 mmHg 64%
    10:00 +13°C° 0 mm 0 mps 737 mmHg 55%
    11:00 +16°C° 0 mm 1 mps 737 mmHg 47%
    12:00 +18°C° 0 mm 1 mps 737 mmHg 43%
    13:00 +19°C° 0 mm 1 mps 736 mmHg 40%
    14:00 +20°C° 0 mm 1 mps 736 mmHg 36%
    15:00 +19°C° 0 mm 1 mps 736 mmHg 37%
    16:00 +19°C° 0 mm 1 mps 735 mmHg 39%
    17:00 +18°C° 0 mm 1 mps 735 mmHg 40%
    18:00 +15°C° 0 mm 1 mps 735 mmHg 47%
    19:00 +13°C° 0 mm 1 mps 735 mmHg 54%
    20:00 +11°C° 0 mm 1 mps 735 mmHg 60%
    21:00 +11°C° 0 mm 1 mps 735 mmHg 62%
    22:00 +10°C° 0 mm 1 mps 736 mmHg 64%
    23:00 +9°C° 0 mm 1 mps 736 mmHg 66%

    Day after tomorrow, 24 March, Sunday

    Time Temperature Precipitation Wind Pressure Humidity
    00:00 +9°C° 0 mm 1 mps 736 mmHg 66%
    01:00 +8°C° 0 mm 1 mps 736 mmHg 66%
    02:00 +8°C° 0 mm 1 mps 736 mmHg 66%
    03:00 +8°C° 0 mm 1 mps 736 mmHg 65%
    04:00 +7°C° 0 mm 1 mps 735 mmHg 65%
    05:00 +7°C° 0 mm 1 mps 735 mmHg 64%
    06:00 +8°C° 0 mm 1 mps 735 mmHg 60%
    07:00 +7°C° 0 mm 0 mps 736 mmHg 57%
    08:00 +8°C° 0 mm 0 mps 736 mmHg 54%
    09:00 +11°C° 0 mm 1 mps 736 mmHg 48%
    10:00 +14°C° 0 mm 1 mps 736 mmHg 42%
    11:00 +16°C° 0 mm 1 mps 736 mmHg 36%
    12:00 +18°C° 0 mm 1 mps 735 mmHg 34%
    13:00 +17°C° 0 mm 2 mps 735 mmHg 32%
    14:00 +18°C° 0 mm 2 mps 734 mmHg 30%
    15:00 +18°C° 0 mm 2 mps 734 mmHg 34%
    16:00 +17°C° 0 mm 2 mps 733 mmHg 37%
    17:00 +17°C° 0 mm 2 mps 733 mmHg 40%
    18:00 +15°C° 0 mm 2 mps 733 mmHg 48%
    19:00 +13°C° 0 mm 2 mps 733 mmHg 55%
    20:00 +11°C° 0 mm 1 mps 732 mmHg 63%
    21:00 +11°C° 0 mm 1 mps 732 mmHg 65%
    22:00 +10°C° 0 mm 1 mps 732 mmHg 67%
    23:00 +10°C° 0 mm 1 mps 732 mmHg 69%

    25 March, Monday

    Time Temperature Precipitation Wind Pressure Humidity
    00:00 +9°C° 0 mm 1 mps 732 mmHg 70%
    01:00 +9°C° 0 mm 1 mps 731 mmHg 70%
    02:00 +9°C° 0 mm 1 mps 731 mmHg 71%
    03:00 +9°C° 0 mm 1 mps 731 mmHg 70%
    04:00 +9°C° 0 mm 1 mps 730 mmHg 69%
    05:00 +9°C° 0 mm 1 mps 730 mmHg 68%
    06:00 +9°C° 0 mm 1 mps 730 mmHg 66%
    07:00 +10°C° 0 mm 1 mps 730 mmHg 65%
    08:00 +11°C° 0 mm 1 mps 730 mmHg 63%
    09:00 +12°C° 0 mm 2 mps 730 mmHg 60%
    10:00 +13°C° 0 mm 2 mps 730 mmHg 57%
    11:00 +14°C° 0 mm 3 mps 730 mmHg 55%
    12:00 +14°C° 0.1 mm 3 mps 729 mmHg 52%
    13:00 +15°C° 0.1 mm 4 mps 729 mmHg 50%
    14:00 +16°C° 0.1 mm 5 mps 729 mmHg 47%
    15:00 +15°C° 0.1 mm 4 mps 728 mmHg 48%
    16:00 +14°C° 0.1 mm 4 mps 728 mmHg 50%
    17:00 +14°C° 0.1 mm 4 mps 727 mmHg 51%
    18:00 +12°C° 0 mm 3 mps 727 mmHg 56%
    19:00 +12°C° 0 mm 2 mps 728 mmHg 60%
    20:00 +11°C° 0 mm 1 mps 728 mmHg 65%
    21:00 +10°C° 0 mm 1 mps 728 mmHg 66%
    22:00 +10°C° 0 mm 1 mps 728 mmHg 67%
    23:00 +9°C° 0 mm 2 mps 728 mmHg 69%

    26 March, Tuesday

    Time Temperature Precipitation Wind Pressure Humidity
    00:00 +8°C° 0 mm 2 mps 728 mmHg 68%
    01:00 +7°C° 0 mm 2 mps 728 mmHg 67%
    02:00 +7°C° 0 mm 2 mps 728 mmHg 66%
    03:00 +6°C° 0 mm 2 mps 728 mmHg 68%
    04:00 +5°C° 0 mm 2 mps 728 mmHg 71%
    05:00 +4°C° 0 mm 2 mps 729 mmHg 73%
    06:00 +4°C° 0 mm 2 mps 729 mmHg 72%
    07:00 +4°C° 0 mm 2 mps 729 mmHg 71%
    08:00 +3°C° 0 mm 3 mps 730 mmHg 70%
    09:00 +5°C° 0 mm 3 mps 730 mmHg 61%
    10:00 +7°C° 0 mm 3 mps 731 mmHg 52%
    11:00 +8°C° 0 mm 3 mps 731 mmHg 43%
    12:00 +8°C° 0 mm 3 mps 731 mmHg 40%
    13:00 +8°C° 0 mm 4 mps 731 mmHg 37%
    14:00 +8°C° 0 mm 4 mps 731 mmHg 34%
    15:00 +9°C° 0.1 mm 3 mps 731 mmHg 36%
    16:00 +8°C° 0.1 mm 3 mps 731 mmHg 39%
    17:00 +7°C° 0.1 mm 3 mps 731 mmHg 41%
    18:00 +6°C° 0.1 mm 2 mps 732 mmHg 47%
    19:00 +6°C° 0.1 mm 1 mps 732 mmHg 54%
    20:00 +4°C° 0.1 mm 0 mps 733 mmHg 60%
    21:00 +3°C° 0 mm 0 mps 733 mmHg 62%
    22:00 +2°C° 0 mm 0 mps 733 mmHg 65%
    23:00 +2°C° 0 mm 1 mps 734 mmHg 68%

    27 March, Wednesday

    Time Temperature Precipitation Wind Pressure Humidity
    00:00 +1°C° 0 mm 0 mps 734 mmHg 70%
    01:00 +1°C° 0 mm 0 mps 734 mmHg 72%
    02:00 0°C° 0 mm 0 mps 734 mmHg 74%
    03:00 0°C° 0 mm 0 mps 734 mmHg 75%
    04:00 0°C° 0 mm 0 mps 735 mmHg 76%
    05:00 -1°C° 0 mm 0 mps 735 mmHg 77%
    06:00 0°C° 0 mm 0 mps 735 mmHg 72%
    07:00 +1°C° 0 mm 0 mps 735 mmHg 68%
    08:00 +3°C° 0 mm 0 mps 736 mmHg 63%
    09:00 +5°C° 0 mm 1 mps 736 mmHg 57%
    10:00 +7°C° 0 mm 1 mps 736 mmHg 51%
    11:00 +9°C° 0 mm 1 mps 737 mmHg 45%
    12:00 +10°C° 0 mm 1 mps 737 mmHg 41%
    13:00 +11°C° 0 mm 1 mps 736 mmHg 36%
    14:00 +12°C° 0 mm 1 mps 736 mmHg 32%
    15:00 +11°C° 0 mm 1 mps 736 mmHg 31%
    16:00 +11°C° 0 mm 1 mps 736 mmHg 31%
    17:00 +10°C° 0 mm 1 mps 736 mmHg 30%
    18:00 +9°C° 0 mm 1 mps 736 mmHg 37%
    19:00 +7°C° 0 mm 1 mps 737 mmHg 43%
    20:00 +5°C° 0 mm 1 mps 737 mmHg 50%
    21:00 +5°C° 0 mm 1 mps 737 mmHg 52%
    22:00 +4°C° 0 mm 1 mps 737 mmHg 54%
    23:00 +3°C° 0 mm 1 mps 738 mmHg 56%
    Show more